Regional Weather Roundup
Issued by NWS Green Bay, WI

Current Version | Previous Version | Text Only | Print | Product List | Glossary On
Versions: 1 2 3 4 5 6 7 8 9 10 11 12 13 14 15 16 17 18 19 20 21 22 23 24 25 26 27 28 29 30 31 32 33 34 35 36 37 38 39 40 41 42 43 44 45 46 47 48 49 50
655
ASUS43 KGRB 220600
RWRGRB

NORTH-CENTRAL AND NORTHEAST WISCONSIN REGIONAL WEATHER ROUNDUP
NATIONAL WEATHER SERVICE GREEN BAY WI
100 AM CDT SUN APR 22 2018

WIZ005-009-010>012-018-019-220700-
NORTH CENTRAL WISCONSIN

CITY           SKY/WX    TMP DP  RH WIND       PRES   REMARKS
IRONWOOD       FAIR      27  24  89 CALM      30.36F
MANITOWISH WTR NOT AVBL
ARBOR VITAE    NOT AVBL
EAGLE RIVER    FAIR      29  19  65 CALM      30.35S
LAND O LAKES   FAIR      27  21  79 CALM      30.37F
RHINELANDER    FAIR      34  24  67 W3        30.35F
PHILLIPS       FAIR      29  21  74 CALM      30.35S
ANTIGO         NOT AVBL
TOMAHAWK       NOT AVBL
MERRILL          N/A     28  24  85 CALM      30.37S
$$

WIZ013-073-220700-
NORTHEAST WISCONSIN

CITY           SKY/WX    TMP DP  RH WIND       PRES   REMARKS
IRON MOUNTAIN  FAIR      32  21  64 NW3       30.34S
MARINETTE      FAIR      35  23  61 CALM      30.38F
$$

WIZ017-030-035>037-045-220700-
CENTRAL WISCONSIN

CITY           SKY/WX    TMP DP  RH WIND       PRES   REMARKS
MEDFORD        NOT AVBL
WAUSAU         FAIR      33  26  75 CALM      30.34F
MOSINEE        NOT AVBL
MARSHFIELD     FAIR      39  27  62 CALM      30.35S
WISC RAPIDS    FAIR      34  24  67 CALM      30.37F
STEVENS POINT  NOT AVBL
WAUPACA        FAIR      33  28  80 CALM      30.38R
SHAWANO        NOT AVBL
CLINTONVILLE   FAIR      32  26  77 CALM      30.37S
WAUTOMA        FAIR      30  27  88 MISG      30.38S
$$

WIZ038-039-048-051-220700-
FOX VALLEY

CITY           SKY/WX    TMP DP  RH WIND       PRES   REMARKS
NWS GREEN BAY  FAIR      36  27  69 CALM      30.37F
APPLETON       NOT AVBL
OSHKOSH        FAIR      37  31  78 S5        30.37S
FOND DU LAC    FAIR      32  28  85 S5        30.38S
$$

WIZ022-050-052-220700-
EAST CENTRAL WISCONSIN

CITY           SKY/WX    TMP DP  RH WIND       PRES   REMARKS
EPHRAIM        NOT AVBL
WASHINGTON ISL NOT AVBL
STURGEON BAY   FAIR      41  21  44 SW3       30.38F
MANITOWOC      FAIR      34  26  72 CALM      30.39S
SHEBOYGAN      FAIR      32  28  85 CALM      30.38S
$$

LMZ563-521-522-541>543-220700-
LAKESHORE

STATION/POSITION TIME  TEMP    WIND        PRES    VSBY  WAVE
                       AIR SEA DIR/SP/G                  HT/PER
                 (UTC) (F)     (DEG/KT/KT) (MB)    (MI)  (FT/S)
SHEBOYGAN LKSHOR 0500   40     210/  5/  5 1029.4R
KEWAUNEE LKSHORE 0530   41     280/  5/  5 1028.0R
NORTHPORT PIER   0540   35                 1028.4S
SISTER BAY LKSHO 0512   45        CALM       N/A
MENOMINEE LKSHOR 0530   37     190/  2/  2 1028.1F
$$




USA.gov is the U.S. government's official web portal to all federal, state and local government web resources and services.